Location: Killam
(52.7910°N, 111.8608°W)
Time: 05:41:08
(UTC+00:00)

A-11 Canister half - Pass Details

Date: 22 February 2026
Orbit: 1524 x 1683 km, 47.3° (Epoch: 13 March)

Event Time Altitude Azimuth Distance (km) Brightness Sun altitude
Rises 23:29:30 0° 235° (SW) 4,735 13.9 10.7°
Reaches altitude 10° 23:32:41 10° 230° (SW) 3,735 13.8 10.3°
Maximum altitude 23:41:38 51° 159° (SSE) 1,856 9.7 9.2°
Drops below altitude 10° 23:50:28 10° 87° (E) 3,694 10.5 8.0°
Sets 23:53:36 0° 82° (E) 4,680 10.9 7.6°
